ITY48X KMCO-LIMC

Flight info

Callsign ITY48X
Flight time N/A
Altitude 37000
Route FATHE4 VIYAP Q87 JROSS Q135 RAPZZ PRONI PUNGO PHITZ DWSEN KW54A PREPI KB63C MONTK VITOL NANSO N55B RAFIN 4550N 4740N 4730N 4720N 4715N SEPAL UN470 LAPEX GALOF PECNO VALKU TIS MEBAK GIPNO BALSI GIGUS MEDAM LAPRI MOGBO TOP M135 ASTIG
Aircraft A359/H-SDE2E3GHIJ3J4J5LM1ORWXY/LB1D1

Departure

Time 2026-04-25 13:40
Airport Orlando International Airport (KMCO)

Arrival

Time N/A
Airport Milan Malpensa International Airport (LIMC)
Time Latitude Longitude Altitude Speed Heading
2026-04-25 10:57 28.41636 -81.31436 101 ft 0 kts 105°
2026-04-25 12:49 28.41637 -81.31441 101 ft 3 kts 104°
2026-04-25 12:49 28.41642 -81.31470 102 ft 4 kts 93°
2026-04-25 12:49 28.41641 -81.31501 101 ft 4 kts 78°
2026-04-25 12:50 28.41632 -81.31529 101 ft 4 kts 53°
2026-04-25 12:50 28.41614 -81.31546 102 ft 4 kts
2026-04-25 12:50 28.41599 -81.31543 102 ft 0 kts 302°
2026-04-25 12:54 28.41601 -81.31546 101 ft 3 kts 302°
2026-04-25 12:54 28.41617 -81.31578 104 ft 7 kts 297°
2026-04-25 12:54 28.41642 -81.31637 104 ft 9 kts 293°
2026-04-25 12:54 28.41662 -81.31692 106 ft 7 kts 293°
2026-04-25 12:55 28.41687 -81.31751 106 ft 9 kts 304°
2026-04-25 12:55 28.41703 -81.31770 105 ft 10 kts 315°
2026-04-25 12:55 28.41799 -81.31866 106 ft 11 kts 339°
2026-04-25 12:55 28.41884 -81.31874 106 ft 13 kts 357°
2026-04-25 12:56 28.41982 -81.31878 105 ft 15 kts 359°
2026-04-25 12:56 28.42091 -81.31878 105 ft 16 kts
2026-04-25 12:56 28.42204 -81.31856 105 ft 17 kts 11°
2026-04-25 12:56 28.42324 -81.31834 106 ft 18 kts
2026-04-25 12:57 28.42449 -81.31833 106 ft 18 kts 360°
2026-04-25 12:57 28.42580 -81.31833 106 ft 19 kts 359°
2026-04-25 12:57 28.42717 -81.31834 107 ft 21 kts 360°
2026-04-25 12:57 28.42872 -81.31837 106 ft 24 kts 359°
2026-04-25 12:58 28.42983 -81.31838 105 ft 24 kts 359°
2026-04-25 12:58 28.43155 -81.31841 105 ft 25 kts 359°
2026-04-25 12:58 28.43333 -81.31844 105 ft 26 kts 359°
2026-04-25 12:58 28.43517 -81.31847 105 ft 27 kts 359°
2026-04-25 12:59 28.43704 -81.31848 105 ft 27 kts 360°
2026-04-25 12:59 28.43847 -81.31850 105 ft 17 kts 359°
2026-04-25 12:59 28.43920 -81.31787 107 ft 14 kts 86°
2026-04-25 12:59 28.43923 -81.31691 110 ft 11 kts 89°
2026-04-25 13:00 28.43924 -81.31604 114 ft 12 kts 89°
2026-04-25 13:00 28.43925 -81.31537 109 ft 14 kts 89°
2026-04-25 13:00 28.43928 -81.31366 111 ft 17 kts 87°
2026-04-25 13:00 28.43933 -81.31233 114 ft 17 kts 87°
2026-04-25 13:01 28.43940 -81.31093 111 ft 18 kts 87°
2026-04-25 13:01 28.43943 -81.30939 114 ft 20 kts 90°
2026-04-25 13:01 28.43937 -81.30779 113 ft 20 kts 94°
2026-04-25 13:01 28.43927 -81.30609 109 ft 23 kts 94°
2026-04-25 13:02 28.43917 -81.30436 110 ft 20 kts 93°
2026-04-25 13:02 28.43911 -81.30290 106 ft 14 kts 93°
2026-04-25 13:02 28.43905 -81.30167 107 ft 17 kts 93°
2026-04-25 13:02 28.43897 -81.30022 104 ft 20 kts 99°
2026-04-25 13:03 28.43835 -81.29882 104 ft 17 kts 135°
2026-04-25 13:03 28.43825 -81.29871 104 ft 0 kts 140°
2026-04-25 13:03 28.43815 -81.29862 105 ft 5 kts 140°
2026-04-25 13:04 28.43784 -81.29839 103 ft 0 kts 151°
2026-04-25 13:05 28.43760 -81.29826 103 ft 8 kts 160°
2026-04-25 13:05 28.43701 -81.29812 103 ft 10 kts 173°
2026-04-25 13:05 28.43604 -81.29807 103 ft 17 kts 179°
2026-04-25 13:05 28.43484 -81.29806 103 ft 18 kts 179°
2026-04-25 13:06 28.43443 -81.29738 103 ft 12 kts 92°
2026-04-25 13:06 28.43442 -81.29704 102 ft 0 kts 91°
2026-04-25 13:06 28.43442 -81.29700 102 ft 4 kts 91°
2026-04-25 13:06 28.43457 -81.29609 105 ft 14 kts 45°
2026-04-25 13:07 28.43536 -81.29570 106 ft 7 kts 53°
2026-04-25 13:07 28.43551 -81.29490 106 ft 10 kts 88°
2026-04-25 13:07 28.43552 -81.29415 105 ft 11 kts 89°
2026-04-25 13:07 28.43553 -81.29320 105 ft 13 kts 89°
2026-04-25 13:08 28.43598 -81.29268 105 ft 10 kts 12°
2026-04-25 13:08 28.43682 -81.29263 105 ft 15 kts
2026-04-25 13:08 28.43802 -81.29263 106 ft 18 kts 360°
2026-04-25 13:08 28.43867 -81.29188 104 ft 16 kts 83°
2026-04-25 13:09 28.43872 -81.29072 110 ft 16 kts 89°
2026-04-25 13:09 28.43872 -81.28926 114 ft 21 kts 89°
2026-04-25 13:09 28.43873 -81.28737 110 ft 28 kts 90°
2026-04-25 13:09 28.43874 -81.28510 106 ft 13 kts 90°
2026-04-25 13:10 28.43874 -81.28435 103 ft 13 kts 86°
2026-04-25 13:10 28.43943 -81.28380 105 ft 15 kts
2026-04-25 13:10 28.44057 -81.28379 103 ft 18 kts
2026-04-25 13:10 28.44184 -81.28381 104 ft 19 kts 359°
2026-04-25 13:11 28.44269 -81.28462 104 ft 16 kts 315°
2026-04-25 13:11 28.44304 -81.28476 102 ft 0 kts 358°
2026-04-25 13:21 28.44312 -81.28477 103 ft 5 kts 356°
2026-04-25 13:22 28.44342 -81.28469 103 ft 0 kts 32°
2026-04-25 13:22 28.44349 -81.28462 104 ft 4 kts 43°
2026-04-25 13:23 28.44351 -81.28459 105 ft 0 kts 49°
2026-04-25 13:27 28.44356 -81.28431 102 ft 9 kts 82°
2026-04-25 13:27 28.44358 -81.28376 102 ft 0 kts 89°
2026-04-25 13:36 28.44358 -81.28375 102 ft 2 kts 89°
2026-04-25 13:36 28.44360 -81.28315 104 ft 12 kts 89°
2026-04-25 13:36 28.44346 -81.28269 104 ft 5 kts 144°
2026-04-25 13:36 28.44300 -81.28258 105 ft 0 kts 178°
2026-04-25 13:39 28.44295 -81.28258 105 ft 10 kts 178°
2026-04-25 13:39 28.43947 -81.28253 104 ft 88 kts 180°
2026-04-25 13:39 28.43102 -81.28246 104 ft 153 kts 180°
2026-04-25 13:39 28.41956 -81.28247 650 ft 166 kts 181°
2026-04-25 13:40 28.40853 -81.27898 1418 ft 172 kts 147°
2026-04-25 13:40 28.40074 -81.26731 1793 ft 204 kts 111°
2026-04-25 13:40 28.39939 -81.25045 2185 ft 224 kts 86°
2026-04-25 13:40 28.40110 -81.23219 2635 ft 243 kts 83°
2026-04-25 13:41 28.40347 -81.21242 3079 ft 260 kts 80°
2026-04-25 13:41 28.40953 -81.19300 3779 ft 263 kts 60°
2026-04-25 13:41 28.42160 -81.17786 4505 ft 266 kts 33°
2026-04-25 13:41 28.43898 -81.17138 5225 ft 267 kts
2026-04-25 13:42 28.45711 -81.17554 5931 ft 271 kts 333°
2026-04-25 13:42 28.47263 -81.18781 6689 ft 274 kts 322°
2026-04-25 13:42 28.48770 -81.20105 7542 ft 273 kts 323°
2026-04-25 13:42 28.50317 -81.21364 8445 ft 274 kts 327°
2026-04-25 13:43 28.52047 -81.22290 9258 ft 278 kts 342°
2026-04-25 13:43 28.53939 -81.22826 10069 ft 281 kts 347°
2026-04-25 13:43 28.55904 -81.23262 10550 ft 297 kts 348°
2026-04-25 13:43 28.58007 -81.23695 10855 ft 317 kts 348°
2026-04-25 13:44 28.60247 -81.24144 11147 ft 336 kts 348°
2026-04-25 13:44 28.62613 -81.24613 11476 ft 353 kts 349°
2026-04-25 13:44 28.65064 -81.25095 12006 ft 360 kts 349°
2026-04-25 13:44 28.67549 -81.25583 12674 ft 365 kts 349°
2026-04-25 13:45 28.69210 -81.25909 13101 ft 367 kts 348°
2026-04-25 13:45 28.71742 -81.26406 13760 ft 371 kts 348°
2026-04-25 13:45 28.74295 -81.26908 14320 ft 375 kts 348°
2026-04-25 13:45 28.76879 -81.27417 14863 ft 378 kts 348°
2026-04-25 13:46 28.79483 -81.27930 15442 ft 382 kts 348°
2026-04-25 13:46 28.82107 -81.28448 16025 ft 384 kts 348°
2026-04-25 13:46 28.84761 -81.28882 16630 ft 388 kts 352°
2026-04-25 13:46 28.87474 -81.29144 17189 ft 393 kts 354°
2026-04-25 13:47 28.90217 -81.29374 17740 ft 398 kts 354°
2026-04-25 13:47 28.92994 -81.29606 18336 ft 402 kts 354°
2026-04-25 13:47 28.95789 -81.29842 18865 ft 405 kts 353°
2026-04-25 13:47 28.98605 -81.30080 19450 ft 407 kts 353°
2026-04-25 13:48 29.01434 -81.30347 20017 ft 409 kts 352°
2026-04-25 13:48 29.04269 -81.30668 20587 ft 411 kts 352°
2026-04-25 13:48 29.07131 -81.30998 21149 ft 414 kts 352°
2026-04-25 13:48 29.10006 -81.31325 21715 ft 417 kts 352°
2026-04-25 13:49 29.12901 -81.31617 22277 ft 420 kts 354°
2026-04-25 13:49 29.15844 -81.31786 22857 ft 423 kts 355°
2026-04-25 13:49 29.18795 -81.31936 23437 ft 426 kts 355°
2026-04-25 13:49 29.21770 -81.32096 23919 ft 430 kts 355°
2026-04-25 13:50 29.24754 -81.32264 24385 ft 433 kts 355°
2026-04-25 13:50 29.27770 -81.32440 24848 ft 436 kts 355°
2026-04-25 13:50 29.30811 -81.32619 25311 ft 439 kts 355°
2026-04-25 13:50 29.33876 -81.32802 25784 ft 442 kts 356°
2026-04-25 13:51 29.36956 -81.32986 26251 ft 445 kts 356°
2026-04-25 13:51 29.40060 -81.33172 26712 ft 447 kts 356°
2026-04-25 13:51 29.43180 -81.33360 27169 ft 450 kts 356°
2026-04-25 13:51 29.46320 -81.33549 27615 ft 453 kts 356°
2026-04-25 13:52 29.49478 -81.33740 28062 ft 456 kts 356°
2026-04-25 13:52 29.52657 -81.33932 28515 ft 459 kts 356°
2026-04-25 13:52 29.55856 -81.34125 28937 ft 462 kts 357°
2026-04-25 13:52 29.59073 -81.34319 29380 ft 464 kts 357°
2026-04-25 13:53 29.62305 -81.34515 29790 ft 467 kts 357°
2026-04-25 13:53 29.65556 -81.34712 30157 ft 469 kts 357°
2026-04-25 13:53 29.68828 -81.34901 30466 ft 472 kts 357°
2026-04-25 13:53 29.72119 -81.35086 30755 ft 475 kts 357°
2026-04-25 13:54 29.75428 -81.35274 31054 ft 477 kts 357°
2026-04-25 13:54 29.78755 -81.35463 31339 ft 480 kts 357°
2026-04-25 13:54 29.82104 -81.35655 31617 ft 482 kts 357°
2026-04-25 13:54 29.85458 -81.35847 31976 ft 483 kts 357°
2026-04-25 13:55 29.88808 -81.36039 32412 ft 481 kts 357°
2026-04-25 13:55 29.92151 -81.36231 32809 ft 480 kts 357°
2026-04-25 13:55 29.95449 -81.36421 33168 ft 480 kts 357°
2026-04-25 13:55 29.98781 -81.36612 33522 ft 480 kts 357°
2026-04-25 13:56 30.02114 -81.36804 33888 ft 479 kts 357°
2026-04-25 13:56 30.05446 -81.36996 34200 ft 479 kts 357°
2026-04-25 13:56 30.08770 -81.37188 34538 ft 477 kts 356°
2026-04-25 13:56 30.12083 -81.37379 34907 ft 475 kts 356°
2026-04-25 13:57 30.15367 -81.37569 35339 ft 471 kts 356°
2026-04-25 13:57 30.17529 -81.37694 35594 ft 469 kts 356°
2026-04-25 13:57 30.21884 -81.37945 36009 ft 467 kts 356°
2026-04-25 13:57 30.25129 -81.38133 36287 ft 467 kts 356°
2026-04-25 13:58 30.28372 -81.38321 36562 ft 466 kts 356°
2026-04-25 13:58 30.31602 -81.38508 36837 ft 465 kts 356°
2026-04-25 13:58 30.34834 -81.38696 36972 ft 466 kts 356°
2026-04-25 13:59 30.41299 -81.39072 36972 ft 465 kts 356°
2026-04-25 13:59 30.47761 -81.39448 36970 ft 465 kts 356°
2026-04-25 14:00 30.54232 -81.39787 36969 ft 465 kts 356°
2026-04-25 14:00 30.60699 -81.40124 36971 ft 465 kts 356°
2026-04-25 14:01 30.67165 -81.40464 36978 ft 465 kts 356°
2026-04-25 14:01 30.73619 -81.40806 36969 ft 465 kts 356°
2026-04-25 14:02 30.80090 -81.41150 36968 ft 465 kts 356°
2026-04-25 14:02 30.86551 -81.41493 36960 ft 465 kts 356°
2026-04-25 14:03 30.93013 -81.41837 36956 ft 465 kts 356°
2026-04-25 14:03 30.99474 -81.42182 36946 ft 465 kts 356°
2026-04-25 14:04 31.05934 -81.42527 36941 ft 465 kts 356°
2026-04-25 14:04 31.12356 -81.42870 36940 ft 465 kts 356°
2026-04-25 14:05 31.18815 -81.43216 36940 ft 465 kts 356°
2026-04-25 14:05 31.25274 -81.42804 36963 ft 467 kts 10°
2026-04-25 14:06 31.31441 -81.40287 36959 ft 472 kts 21°
2026-04-25 14:06 31.37420 -81.37076 36961 ft 473 kts 23°
2026-04-25 14:07 31.43376 -81.33775 36961 ft 473 kts 23°
2026-04-25 14:07 31.49333 -81.30501 36953 ft 473 kts 22°
2026-04-25 14:08 31.55312 -81.27240 36955 ft 473 kts 22°
2026-04-25 14:08 31.61268 -81.23996 36944 ft 471 kts 22°
2026-04-25 14:09 31.67204 -81.20759 36926 ft 470 kts 22°
2026-04-25 14:09 31.73139 -81.17525 36924 ft 470 kts 22°
2026-04-25 14:10 31.79072 -81.14275 36919 ft 471 kts 23°
2026-04-25 14:10 31.85007 -81.11019 36917 ft 471 kts 23°
2026-04-25 14:11 31.90906 -81.07780 36917 ft 471 kts 23°
2026-04-25 14:11 31.96847 -81.04515 36915 ft 471 kts 23°
2026-04-25 14:12 32.02788 -81.01242 36914 ft 471 kts 23°
2026-04-25 14:12 32.08730 -80.97919 36915 ft 473 kts 23°
2026-04-25 14:13 32.14680 -80.94576 36915 ft 474 kts 23°
2026-04-25 14:13 32.20630 -80.91233 36945 ft 474 kts 23°
2026-04-25 14:14 32.26572 -80.87896 36945 ft 471 kts 23°
2026-04-25 14:14 32.32499 -80.84562 36946 ft 472 kts 23°
2026-04-25 14:15 32.37432 -80.81786 36938 ft 473 kts 23°
2026-04-25 14:15 32.44374 -80.77872 36943 ft 473 kts 23°
2026-04-25 14:16 32.50317 -80.74515 36945 ft 473 kts 24°
2026-04-25 14:16 32.56218 -80.71177 36944 ft 473 kts 24°
2026-04-25 14:17 32.62168 -80.67807 36940 ft 474 kts 24°
2026-04-25 14:17 32.68098 -80.64354 36935 ft 476 kts 28°
2026-04-25 14:18 32.73349 -80.59563 36930 ft 480 kts 44°
2026-04-25 14:18 32.77887 -80.53723 36934 ft 482 kts 46°
2026-04-25 14:19 32.82293 -80.47708 36926 ft 483 kts 47°
2026-04-25 14:19 32.86698 -80.41665 36928 ft 484 kts 47°
2026-04-25 14:20 32.91117 -80.35635 36934 ft 484 kts 47°
2026-04-25 14:20 32.95540 -80.29612 36936 ft 484 kts 47°
2026-04-25 14:21 32.99975 -80.23570 36936 ft 484 kts 47°
2026-04-25 14:21 33.04402 -80.17529 36933 ft 484 kts 47°
2026-04-25 14:22 33.08821 -80.11483 36937 ft 483 kts 47°
2026-04-25 14:22 33.13233 -80.05445 36938 ft 483 kts 47°
2026-04-25 14:23 33.17640 -79.99398 36934 ft 483 kts 47°
2026-04-25 14:23 33.22045 -79.93342 36935 ft 483 kts 47°
2026-04-25 14:24 33.26447 -79.87282 36931 ft 483 kts 47°
2026-04-25 14:24 33.30848 -79.81211 36928 ft 484 kts 47°
2026-04-25 14:25 33.35255 -79.75124 36927 ft 483 kts 47°
2026-04-25 14:25 33.39647 -79.69048 36928 ft 482 kts 47°
2026-04-25 14:26 33.44002 -79.63011 36930 ft 482 kts 47°
2026-04-25 14:26 33.48386 -79.56922 36933 ft 483 kts 47°
2026-04-25 14:27 33.52767 -79.50829 36937 ft 483 kts 47°
2026-04-25 14:27 33.57165 -79.44703 36930 ft 485 kts 47°
2026-04-25 14:28 33.61561 -79.38568 36932 ft 484 kts 48°
2026-04-25 14:28 33.65939 -79.32449 36930 ft 483 kts 48°
2026-04-25 14:29 33.70315 -79.26332 36935 ft 482 kts 47°
2026-04-25 14:29 33.74684 -79.20212 36937 ft 483 kts 47°
2026-04-25 14:30 33.77581 -79.16148 36944 ft 485 kts 47°
2026-04-25 14:30 33.84918 -79.05834 36944 ft 487 kts 47°
2026-04-25 14:31 33.89310 -78.99647 36942 ft 485 kts 48°
2026-04-25 14:31 33.93687 -78.93471 36938 ft 484 kts 48°
2026-04-25 14:32 33.98055 -78.87296 36929 ft 485 kts 47°
2026-04-25 14:32 34.02438 -78.81094 36927 ft 487 kts 47°
2026-04-25 14:33 34.06827 -78.74868 36937 ft 487 kts 48°
2026-04-25 14:33 34.11216 -78.68632 36946 ft 487 kts 48°
2026-04-25 14:34 34.15596 -78.62396 36939 ft 486 kts 48°
2026-04-25 14:34 34.19958 -78.56175 36943 ft 485 kts 48°
2026-04-25 14:35 34.24211 -78.49871 36937 ft 490 kts 53°
2026-04-25 14:35 34.27510 -78.42636 36931 ft 493 kts 62°
2026-04-25 14:36 34.30438 -78.35140 36926 ft 493 kts 63°
2026-04-25 14:36 34.33299 -78.27597 36924 ft 493 kts 63°
2026-04-25 14:37 34.36168 -78.20047 36928 ft 493 kts 63°
2026-04-25 14:37 34.39046 -78.12504 36926 ft 493 kts 63°
2026-04-25 14:38 34.41925 -78.04959 36930 ft 494 kts 63°
2026-04-25 14:38 34.44809 -77.97385 36928 ft 496 kts 63°
2026-04-25 14:39 34.47690 -77.89799 36930 ft 495 kts 63°
2026-04-25 14:39 34.50564 -77.82212 36930 ft 494 kts 63°
2026-04-25 14:40 34.53428 -77.74632 36931 ft 494 kts 63°
2026-04-25 14:40 34.56771 -77.67389 36932 ft 490 kts 51°
2026-04-25 14:41 34.61387 -77.61354 36932 ft 488 kts 42°
2026-04-25 14:41 34.66282 -77.55700 36934 ft 489 kts 41°
2026-04-25 14:42 34.70444 -77.50978 36933 ft 488 kts 41°
2026-04-25 14:42 34.76199 -77.44404 36932 ft 488 kts 41°
2026-04-25 14:43 34.81133 -77.38719 36936 ft 488 kts 41°
2026-04-25 14:43 34.86058 -77.33027 36933 ft 489 kts 41°
2026-04-25 14:44 34.91002 -77.27303 36925 ft 491 kts 41°
2026-04-25 14:44 34.95952 -77.21566 36934 ft 491 kts 41°
2026-04-25 14:45 35.00886 -77.15829 36934 ft 490 kts 41°
2026-04-25 14:45 35.05811 -77.10094 36931 ft 489 kts 41°
2026-04-25 14:46 35.10742 -77.04348 36935 ft 491 kts 41°
2026-04-25 14:46 35.15676 -76.98588 36909 ft 491 kts 41°
2026-04-25 14:47 35.19790 -76.93776 36917 ft 491 kts 41°
2026-04-25 14:47 35.25561 -76.87014 36911 ft 492 kts 41°
2026-04-25 14:48 35.30458 -76.81264 36906 ft 490 kts 41°
2026-04-25 14:48 35.35403 -76.75447 36908 ft 489 kts 41°
2026-04-25 14:49 35.40276 -76.69706 36910 ft 489 kts 41°
2026-04-25 14:49 35.45180 -76.63918 36907 ft 489 kts 41°
2026-04-25 14:50 35.50085 -76.58119 36921 ft 490 kts 41°
2026-04-25 14:50 35.55000 -76.52298 36906 ft 493 kts 41°
2026-04-25 14:51 35.59951 -76.46468 36897 ft 491 kts 38°
2026-04-25 14:51 35.65351 -76.41405 36902 ft 487 kts 32°
2026-04-25 14:52 35.70891 -76.36601 36899 ft 487 kts 32°
2026-04-25 14:52 35.75515 -76.32642 36899 ft 488 kts 31°
2026-04-25 14:53 35.82028 -76.27049 36893 ft 489 kts 31°
2026-04-25 14:53 35.87596 -76.22242 36895 ft 489 kts 31°
2026-04-25 14:54 35.93162 -76.17421 36895 ft 489 kts 31°
2026-04-25 14:54 35.98727 -76.12592 36900 ft 489 kts 31°
2026-04-25 14:55 36.04291 -76.07757 36899 ft 488 kts 31°
2026-04-25 14:55 36.09845 -76.02922 36892 ft 488 kts 31°
2026-04-25 14:56 36.15400 -75.98078 36897 ft 488 kts 31°
2026-04-25 14:56 36.20952 -75.93229 36899 ft 489 kts 31°
2026-04-25 14:57 36.26537 -75.88399 36891 ft 488 kts 28°
2026-04-25 14:57 36.32365 -75.84130 36896 ft 486 kts 26°
2026-04-25 14:58 36.38238 -75.79976 36909 ft 486 kts 25°
2026-04-25 14:58 36.44118 -75.75839 36892 ft 485 kts 25°
2026-04-25 14:59 36.49977 -75.71702 36893 ft 484 kts 25°
2026-04-25 14:59 36.55832 -75.67554 36891 ft 484 kts 25°
2026-04-25 15:00 36.61683 -75.63399 36904 ft 484 kts 25°
2026-04-25 15:00 36.67533 -75.59237 36896 ft 485 kts 25°
2026-04-25 15:01 36.73350 -75.55092 36895 ft 485 kts 25°
2026-04-25 15:01 36.79225 -75.50897 36894 ft 485 kts 25°
2026-04-25 15:02 36.85102 -75.46692 36900 ft 485 kts 24°
2026-04-25 15:02 36.90971 -75.42488 36907 ft 486 kts 24°
2026-04-25 15:03 36.96834 -75.38280 36903 ft 485 kts 24°
2026-04-25 15:03 37.02679 -75.34077 36906 ft 484 kts 25°
2026-04-25 15:04 37.08530 -75.29862 36913 ft 485 kts 24°
2026-04-25 15:04 37.14381 -75.25641 36907 ft 486 kts 24°
2026-04-25 15:05 37.20316 -75.21350 36916 ft 486 kts 24°
2026-04-25 15:06 37.29098 -75.14986 36919 ft 486 kts 24°
2026-04-25 15:06 37.34960 -75.10729 36922 ft 487 kts 24°
2026-04-25 15:07 37.40826 -75.06461 36929 ft 487 kts 24°
2026-04-25 15:07 37.46716 -75.02167 36927 ft 485 kts 24°
2026-04-25 15:08 37.52505 -74.97938 36933 ft 484 kts 24°
2026-04-25 15:08 37.57383 -74.94371 36933 ft 484 kts 24°
2026-04-25 15:09 37.63203 -74.90108 36931 ft 484 kts 24°
2026-04-25 15:09 37.72099 -74.84187 36936 ft 481 kts 20°
2026-04-25 15:10 37.78134 -74.80396 36938 ft 482 kts 20°
2026-04-25 15:11 37.87119 -74.74629 36950 ft 482 kts 21°
2026-04-25 15:11 37.93076 -74.70754 36953 ft 483 kts 21°
2026-04-25 15:12 38.02042 -74.64908 36967 ft 483 kts 21°
2026-04-25 15:12 38.07056 -74.61634 36965 ft 483 kts 21°
2026-04-25 15:13 38.17024 -74.55111 36971 ft 483 kts 21°
2026-04-25 15:14 38.22970 -74.51210 36977 ft 483 kts 21°
2026-04-25 15:14 38.28951 -74.47280 36985 ft 484 kts 21°
2026-04-25 15:15 38.34951 -74.43328 36986 ft 483 kts 21°
2026-04-25 15:15 38.40971 -74.39356 36993 ft 483 kts 21°
2026-04-25 15:16 38.46900 -74.35438 37009 ft 483 kts 21°
2026-04-25 15:16 38.55864 -74.29496 37007 ft 480 kts 20°
2026-04-25 15:17 38.64765 -74.23584 37012 ft 480 kts 20°
2026-04-25 15:18 38.70736 -74.19609 37018 ft 481 kts 21°
2026-04-25 15:18 38.79593 -74.13696 37023 ft 480 kts 20°
2026-04-25 15:19 38.84521 -74.10400 37028 ft 480 kts 20°
2026-04-25 15:19 38.91449 -74.05757 37028 ft 481 kts 20°
2026-04-25 15:20 38.97414 -74.01751 37034 ft 481 kts 20°
2026-04-25 15:20 39.03104 -73.97214 37039 ft 486 kts 27°
2026-04-25 15:21 39.08709 -73.92234 37049 ft 486 kts 28°
2026-04-25 15:21 39.14258 -73.87211 37047 ft 486 kts 28°
2026-04-25 15:22 39.19822 -73.82170 37056 ft 487 kts 28°
2026-04-25 15:22 39.25367 -73.77148 37058 ft 487 kts 28°
2026-04-25 15:23 39.30909 -73.72126 37062 ft 487 kts 28°
2026-04-25 15:23 39.36454 -73.67091 37060 ft 487 kts 28°
2026-04-25 15:24 39.42004 -73.62040 37074 ft 486 kts 28°
2026-04-25 15:24 39.45686 -73.58683 37071 ft 485 kts 28°
2026-04-25 15:25 39.53070 -73.51941 37080 ft 485 kts 28°
2026-04-25 15:25 39.58625 -73.46857 37082 ft 485 kts 28°
2026-04-25 15:26 39.64147 -73.41794 37081 ft 485 kts 28°
2026-04-25 15:26 39.69642 -73.36744 37085 ft 485 kts 28°
2026-04-25 15:27 39.75151 -73.31671 37090 ft 485 kts 28°
2026-04-25 15:28 39.82823 -73.22955 37093 ft 499 kts 45°
2026-04-25 15:28 39.87031 -73.15724 37094 ft 502 kts 47°
2026-04-25 15:29 39.91103 -73.08320 37094 ft 502 kts 48°
2026-04-25 15:29 39.95152 -73.00919 37097 ft 501 kts 48°
2026-04-25 15:30 39.98526 -72.94778 37120 ft 501 kts 47°
2026-04-25 15:30 40.03265 -72.86169 37114 ft 500 kts 47°
2026-04-25 15:31 40.07320 -72.78791 37113 ft 499 kts 48°
2026-04-25 15:31 40.11357 -72.71426 37110 ft 498 kts 48°
2026-04-25 15:32 40.15415 -72.64004 37119 ft 498 kts 48°
2026-04-25 15:32 40.19440 -72.56625 37125 ft 498 kts 47°
2026-04-25 15:33 40.25456 -72.45561 37123 ft 496 kts 47°
2026-04-25 15:33 40.28803 -72.39389 37127 ft 496 kts 47°
2026-04-25 15:34 40.32796 -72.32010 37132 ft 496 kts 47°
2026-04-25 15:34 40.36112 -72.25871 37132 ft 496 kts 48°
2026-04-25 15:35 40.42754 -72.13535 37133 ft 496 kts 48°
2026-04-25 15:36 40.47239 -72.05177 37129 ft 496 kts 48°
2026-04-25 15:37 40.52370 -71.92819 37137 ft 508 kts 59°
2026-04-25 15:37 40.53264 -71.90126 37153 ft 509 kts 60°
2026-04-25 15:37 40.56470 -71.80145 37140 ft 510 kts 60°
2026-04-25 15:38 40.59215 -71.71523 37142 ft 511 kts 60°
2026-04-25 15:38 40.61949 -71.62965 37149 ft 511 kts 60°
2026-04-25 15:39 40.64722 -71.54289 37148 ft 511 kts 60°
2026-04-25 15:39 40.67455 -71.45717 37146 ft 511 kts 60°
2026-04-25 15:40 40.69754 -71.38484 37147 ft 511 kts 60°
2026-04-25 15:40 40.72957 -71.28373 37146 ft 511 kts 60°
2026-04-25 15:41 40.75690 -71.19716 37149 ft 511 kts 60°
2026-04-25 15:41 40.77953 -71.12529 37143 ft 511 kts 60°
2026-04-25 15:42 40.80658 -71.03909 37143 ft 512 kts 60°
2026-04-25 15:42 40.83275 -70.95158 37146 ft 514 kts 63°
2026-04-25 15:43 40.85558 -70.86182 37161 ft 516 kts 64°
2026-04-25 15:43 40.87809 -70.77178 37140 ft 516 kts 64°
2026-04-25 15:44 40.90104 -70.68198 37141 ft 516 kts 63°
2026-04-25 15:44 40.92421 -70.59223 37142 ft 516 kts 63°
2026-04-25 15:45 40.94739 -70.50240 37136 ft 516 kts 63°
2026-04-25 15:45 40.96655 -70.42779 37137 ft 515 kts 63°
2026-04-25 15:46 40.99339 -70.32287 37141 ft 515 kts 63°
2026-04-25 15:46 41.01625 -70.23310 37145 ft 515 kts 63°
2026-04-25 15:47 41.03908 -70.14311 37147 ft 515 kts 63°
2026-04-25 15:47 41.06167 -70.05373 37145 ft 515 kts 63°
2026-04-25 15:48 41.08433 -69.96376 37144 ft 515 kts 63°
2026-04-25 15:48 41.10692 -69.87370 37144 ft 515 kts 63°
2026-04-25 15:49 41.12945 -69.78356 37141 ft 515 kts 63°
2026-04-25 15:49 41.15191 -69.69337 37140 ft 515 kts 63°
2026-04-25 15:50 41.17431 -69.60305 37146 ft 515 kts 63°
2026-04-25 15:50 41.19660 -69.51278 37158 ft 514 kts 63°
2026-04-25 15:51 41.21508 -69.43771 37137 ft 514 kts 63°
2026-04-25 15:51 41.24098 -69.33213 37138 ft 514 kts 63°
2026-04-25 15:52 41.26307 -69.24170 37135 ft 514 kts 63°
2026-04-25 15:52 41.28508 -69.15124 37129 ft 514 kts 63°
2026-04-25 15:53 41.30683 -69.06143 37131 ft 513 kts 63°
2026-04-25 15:53 41.32875 -68.97057 37131 ft 512 kts 63°
2026-04-25 15:54 41.35032 -68.88090 37128 ft 512 kts 63°
2026-04-25 15:54 41.37195 -68.79063 37127 ft 511 kts 63°
2026-04-25 15:55 41.39347 -68.70041 37124 ft 511 kts 63°
2026-04-25 15:55 41.41492 -68.61013 37134 ft 511 kts 63°
2026-04-25 15:56 41.43627 -68.51994 37150 ft 510 kts 63°
2026-04-25 15:56 41.45754 -68.42969 37117 ft 510 kts 63°
2026-04-25 15:57 41.47875 -68.33932 37116 ft 510 kts 63°
2026-04-25 15:57 41.49990 -68.24892 37112 ft 511 kts 63°
2026-04-25 15:58 41.52096 -68.15850 37124 ft 511 kts 63°
2026-04-25 15:58 41.54201 -68.06786 37110 ft 511 kts 64°
2026-04-25 15:59 41.55590 -68.00778 37114 ft 511 kts 64°
2026-04-25 16:00 41.56361 -67.97442 37114 ft 511 kts 64°
2026-04-25 16:00 41.59141 -67.85354 37200 ft 512 kts 64°
2026-04-25 16:01 41.60183 -67.80806 37445 ft 512 kts 64°
2026-04-25 16:01 41.61222 -67.76257 37749 ft 511 kts 64°
2026-04-25 16:01 41.62257 -67.71718 38047 ft 510 kts 65°
2026-04-25 16:01 41.63290 -67.67182 38280 ft 510 kts 65°
2026-04-25 16:02 41.64321 -67.62642 38516 ft 510 kts 65°
2026-04-25 16:02 41.65350 -67.58107 38752 ft 510 kts 66°
2026-04-25 16:02 41.66378 -67.53567 38952 ft 510 kts 66°
2026-04-25 16:02 41.67403 -67.49033 39078 ft 511 kts 66°
2026-04-25 16:03 41.69454 -67.39925 39099 ft 511 kts 66°
2026-04-25 16:03 41.71498 -67.30806 39095 ft 511 kts 66°
2026-04-25 16:04 41.73532 -67.21693 39119 ft 511 kts 66°
2026-04-25 16:04 41.75561 -67.12571 39086 ft 510 kts 67°
2026-04-25 16:05 41.77579 -67.03456 39086 ft 510 kts 67°
2026-04-25 16:06 41.81317 -66.90235 39083 ft 505 kts 61°
2026-04-25 16:06 41.83966 -66.81592 39088 ft 504 kts 61°
2026-04-25 16:07 41.86639 -66.72885 39072 ft 504 kts 61°
2026-04-25 16:07 41.89296 -66.64171 39072 ft 505 kts 62°
2026-04-25 16:08 41.91944 -66.55438 39082 ft 505 kts 62°
2026-04-25 16:08 41.94579 -66.46715 39071 ft 504 kts 62°
2026-04-25 16:09 41.97204 -66.37995 39062 ft 503 kts 62°
2026-04-25 16:09 41.99820 -66.29277 39056 ft 503 kts 62°
2026-04-25 16:10 42.02428 -66.20557 39050 ft 502 kts 62°
2026-04-25 16:10 42.05027 -66.11836 39048 ft 502 kts 62°
2026-04-25 16:11 42.07617 -66.03118 39045 ft 501 kts 63°
2026-04-25 16:11 42.10200 -65.94397 39040 ft 501 kts 63°
2026-04-25 16:12 42.12776 -65.85668 39042 ft 502 kts 63°
2026-04-25 16:12 42.15351 -65.76914 39035 ft 502 kts 63°
2026-04-25 16:13 42.17919 -65.68153 39029 ft 502 kts 63°
2026-04-25 16:13 42.20480 -65.59385 39034 ft 503 kts 63°
2026-04-25 16:14 42.23036 -65.50603 39021 ft 503 kts 63°
2026-04-25 16:14 42.25155 -65.43303 39021 ft 503 kts 63°
2026-04-25 16:15 42.27701 -65.34500 39020 ft 503 kts 63°
2026-04-25 16:15 42.30649 -65.24270 39031 ft 503 kts 64°
2026-04-25 16:16 42.32768 -65.16892 39015 ft 503 kts 64°
2026-04-25 16:16 42.35289 -65.08085 39011 ft 502 kts 64°
2026-04-25 16:17 42.37803 -64.99273 39016 ft 502 kts 64°
2026-04-25 16:17 42.40313 -64.90445 39003 ft 502 kts 64°
2026-04-25 16:18 42.42810 -64.81633 38990 ft 502 kts 64°
2026-04-25 16:18 42.45301 -64.72808 39002 ft 502 kts 64°
2026-04-25 16:19 42.47777 -64.64010 38999 ft 503 kts 64°
2026-04-25 16:19 42.50257 -64.55163 38991 ft 502 kts 65°
2026-04-25 16:20 42.53931 -64.41998 38987 ft 502 kts 65°
2026-04-25 16:21 42.57627 -64.28683 38977 ft 502 kts 65°
2026-04-25 16:21 42.60079 -64.19814 38979 ft 502 kts 65°
2026-04-25 16:22 42.62522 -64.10939 38974 ft 501 kts 65°
2026-04-25 16:22 42.64957 -64.02067 38966 ft 501 kts 65°
2026-04-25 16:23 42.67385 -63.93188 38966 ft 501 kts 65°
2026-04-25 16:23 42.69805 -63.84305 38959 ft 501 kts 65°
2026-04-25 16:24 42.72215 -63.75424 38960 ft 500 kts 65°
2026-04-25 16:24 42.74616 -63.66549 38952 ft 500 kts 65°
2026-04-25 16:25 42.76604 -63.59173 38952 ft 500 kts 66°
2026-04-25 16:25 42.79398 -63.48772 38956 ft 500 kts 66°
2026-04-25 16:26 42.81780 -63.39867 38939 ft 499 kts 66°
2026-04-25 16:26 42.84149 -63.30977 38939 ft 499 kts 66°
2026-04-25 16:27 42.86512 -63.22083 38931 ft 499 kts 66°
2026-04-25 16:27 42.88866 -63.13186 38930 ft 499 kts 66°
2026-04-25 16:28 42.91216 -63.04270 38930 ft 499 kts 66°
2026-04-25 16:28 42.93558 -62.95353 38920 ft 499 kts 66°
2026-04-25 16:29 42.95895 -62.86422 38909 ft 499 kts 66°
2026-04-25 16:29 42.98224 -62.77486 38901 ft 500 kts 66°
2026-04-25 16:30 43.00531 -62.68605 38906 ft 500 kts 67°
2026-04-25 16:30 43.02848 -62.59649 38907 ft 500 kts 67°
2026-04-25 16:31 43.05172 -62.50636 38896 ft 500 kts 67°
2026-04-25 16:31 43.07465 -62.41708 38889 ft 500 kts 67°
2026-04-25 16:32 43.09763 -62.32723 38886 ft 500 kts 67°
2026-04-25 16:32 43.12053 -62.23735 38878 ft 500 kts 67°
2026-04-25 16:33 43.14338 -62.14737 38872 ft 500 kts 67°
2026-04-25 16:33 43.16614 -62.05735 38867 ft 500 kts 67°
2026-04-25 16:34 43.18886 -61.96717 38864 ft 500 kts 68°
2026-04-25 16:34 43.21150 -61.87698 38856 ft 500 kts 68°
2026-04-25 16:35 43.23404 -61.78678 38854 ft 500 kts 68°
2026-04-25 16:35 43.25655 -61.69641 38854 ft 500 kts 68°
2026-04-25 16:36 43.27882 -61.60662 38848 ft 500 kts 68°
2026-04-25 16:36 43.30131 -61.51558 38834 ft 501 kts 68°
2026-04-25 16:37 43.32365 -61.42483 38839 ft 502 kts 68°
2026-04-25 16:37 43.34595 -61.33390 38831 ft 503 kts 68°
2026-04-25 16:38 43.36806 -61.24331 38827 ft 503 kts 68°
2026-04-25 16:38 43.39022 -61.15218 38832 ft 503 kts 68°
2026-04-25 16:39 43.41234 -61.06086 38814 ft 503 kts 68°
2026-04-25 16:39 43.43439 -60.96946 38807 ft 503 kts 68°
2026-04-25 16:40 43.45636 -60.87799 38808 ft 503 kts 68°
2026-04-25 16:40 43.47830 -60.78631 38797 ft 504 kts 68°
2026-04-25 16:41 43.50016 -60.69461 38791 ft 504 kts 68°
2026-04-25 16:41 43.53286 -60.55670 38785 ft 505 kts 68°
2026-04-25 16:42 43.55457 -60.46469 38788 ft 505 kts 69°
2026-04-25 16:42 43.57619 -60.37264 38779 ft 505 kts 69°
2026-04-25 16:43 43.59760 -60.28112 38776 ft 505 kts 69°
2026-04-25 16:43 43.61909 -60.18888 38774 ft 505 kts 69°
2026-04-25 16:44 43.64049 -60.09665 38760 ft 505 kts 69°
2026-04-25 16:44 43.66183 -60.00432 38760 ft 505 kts 69°
2026-04-25 16:45 43.68311 -59.91183 38757 ft 505 kts 69°
2026-04-25 16:45 43.70428 -59.81939 38751 ft 505 kts 69°
2026-04-25 16:46 43.72540 -59.72685 38742 ft 505 kts 69°
2026-04-25 16:46 43.73948 -59.66493 38748 ft 505 kts 69°
2026-04-25 16:47 43.76742 -59.54150 38736 ft 505 kts 70°
2026-04-25 16:47 43.78830 -59.44877 38722 ft 505 kts 70°
2026-04-25 16:48 43.80913 -59.35590 38720 ft 505 kts 70°
2026-04-25 16:48 43.82987 -59.26304 38720 ft 505 kts 70°
2026-04-25 16:49 43.85040 -59.17072 38716 ft 505 kts 70°
2026-04-25 16:49 43.87098 -59.07775 38706 ft 505 kts 70°
2026-04-25 16:50 43.89151 -58.98462 38706 ft 505 kts 70°
2026-04-25 16:50 43.91195 -58.89146 38700 ft 505 kts 70°
2026-04-25 16:51 43.93232 -58.79822 38692 ft 505 kts 70°
2026-04-25 16:51 43.94591 -58.73578 38692 ft 505 kts 70°
2026-04-25 16:52 43.97283 -58.61162 38686 ft 505 kts 70°
2026-04-25 16:52 43.99298 -58.51822 38686 ft 505 kts 70°
2026-04-25 16:53 44.02304 -58.37796 38673 ft 505 kts 70°
2026-04-25 16:54 44.04296 -58.28451 38675 ft 505 kts 70°
2026-04-25 16:54 44.06281 -58.19096 38661 ft 504 kts 70°
2026-04-25 16:55 44.08244 -58.09812 38656 ft 504 kts 70°
2026-04-25 16:55 44.10216 -58.00449 38699 ft 505 kts 71°
2026-04-25 16:55 44.11199 -57.95758 38849 ft 505 kts 71°
2026-04-25 16:56 44.12194 -57.91003 39010 ft 505 kts 71°
2026-04-25 16:56 44.13172 -57.86314 39189 ft 505 kts 71°
2026-04-25 16:56 44.14136 -57.81677 39333 ft 504 kts 71°
2026-04-25 16:56 44.15111 -57.76982 39458 ft 505 kts 71°
2026-04-25 16:57 44.16084 -57.72285 39597 ft 505 kts 71°
2026-04-25 16:57 44.18025 -57.62886 39635 ft 505 kts 71°
2026-04-25 16:58 44.19961 -57.53473 39630 ft 505 kts 72°
2026-04-25 16:58 44.21888 -57.44061 39630 ft 505 kts 72°
2026-04-25 16:59 44.23811 -57.34619 39617 ft 507 kts 72°
2026-04-25 16:59 44.25733 -57.25136 39609 ft 508 kts 71°
2026-04-25 17:00 44.27645 -57.15652 39616 ft 508 kts 72°
2026-04-25 17:00 44.29551 -57.06158 39603 ft 508 kts 71°
2026-04-25 17:01 44.31454 -56.96641 39595 ft 509 kts 72°
2026-04-25 17:01 44.33335 -56.87180 39591 ft 509 kts 72°
2026-04-25 17:02 44.35224 -56.77641 39586 ft 509 kts 72°
2026-04-25 17:02 44.37103 -56.68096 39588 ft 510 kts 72°
2026-04-25 17:03 44.38662 -56.60141 39593 ft 510 kts 71°
2026-04-25 17:03 44.40529 -56.50577 39576 ft 510 kts 72°
2026-04-25 17:04 44.42388 -56.41009 39566 ft 509 kts 72°
2026-04-25 17:04 44.44238 -56.31444 39562 ft 509 kts 73°
2026-04-25 17:05 44.46079 -56.21873 39557 ft 509 kts 72°
2026-04-25 17:05 44.48758 -56.07476 39540 ft 511 kts 77°
2026-04-25 17:06 44.49969 -55.97655 39541 ft 512 kts 79°
2026-04-25 17:06 44.51064 -55.87796 39537 ft 512 kts 79°
2026-04-25 17:07 44.52132 -55.77910 39530 ft 513 kts 79°
2026-04-25 17:07 44.53199 -55.68025 39529 ft 512 kts 79°
2026-04-25 17:08 44.54262 -55.58148 39524 ft 513 kts 79°
2026-04-25 17:08 44.55320 -55.48244 39509 ft 513 kts 79°
2026-04-25 17:09 44.56371 -55.38335 39506 ft 514 kts 80°
2026-04-25 17:09 44.57413 -55.28421 39507 ft 514 kts 79°
2026-04-25 17:10 44.58447 -55.18488 39501 ft 514 kts 79°
2026-04-25 17:10 44.59473 -55.08555 39494 ft 514 kts 80°
2026-04-25 17:11 44.60484 -54.98675 39489 ft 516 kts 81°
2026-04-25 17:11 44.61494 -54.88700 39481 ft 516 kts 80°
2026-04-25 17:12 44.62497 -54.78718 39477 ft 516 kts 80°
2026-04-25 17:12 44.63491 -54.68746 39479 ft 516 kts 81°
2026-04-25 17:13 44.64310 -54.60470 39472 ft 514 kts 81°
2026-04-25 17:13 44.65451 -54.48828 39457 ft 516 kts 81°
2026-04-25 17:14 44.66419 -54.38846 39458 ft 516 kts 81°
2026-04-25 17:14 44.67378 -54.28852 39445 ft 516 kts 81°
2026-04-25 17:15 44.68323 -54.18917 39453 ft 516 kts 81°
2026-04-25 17:15 44.69261 -54.08944 39437 ft 514 kts 81°
2026-04-25 17:16 44.70191 -53.98980 39436 ft 515 kts 81°
2026-04-25 17:16 44.71116 -53.88986 39425 ft 515 kts 81°
2026-04-25 17:17 44.72032 -53.78989 39420 ft 515 kts 82°
2026-04-25 17:17 44.72938 -53.68989 39410 ft 515 kts 81°
2026-04-25 17:18 44.73834 -53.58995 39407 ft 514 kts 81°
2026-04-25 17:18 44.74720 -53.49006 39409 ft 514 kts 81°
2026-04-25 17:19 44.75601 -53.39000 39394 ft 516 kts 82°
2026-04-25 17:19 44.76476 -53.28953 39395 ft 517 kts 82°
2026-04-25 17:20 44.77340 -53.18910 39388 ft 517 kts 82°
2026-04-25 17:20 44.78197 -53.08868 39388 ft 517 kts 82°
2026-04-25 17:21 44.79043 -52.98818 39376 ft 516 kts 82°
2026-04-25 17:21 44.79880 -52.88774 39377 ft 516 kts 82°
2026-04-25 17:22 44.80569 -52.80425 39375 ft 516 kts 82°
2026-04-25 17:22 44.81506 -52.68958 39378 ft 516 kts 82°
2026-04-25 17:23 44.82318 -52.58909 39369 ft 517 kts 82°
2026-04-25 17:23 44.83120 -52.48852 39369 ft 517 kts 83°
2026-04-25 17:24 44.83916 -52.38783 39357 ft 517 kts 83°
2026-04-25 17:24 44.84702 -52.28713 39355 ft 518 kts 83°
2026-04-25 17:25 44.85480 -52.18627 39347 ft 518 kts 83°
2026-04-25 17:25 44.86249 -52.08544 39352 ft 517 kts 83°
2026-04-25 17:26 44.87008 -51.98459 39340 ft 518 kts 83°
2026-04-25 17:26 44.87760 -51.88367 39339 ft 518 kts 83°
2026-04-25 17:27 44.88504 -51.78267 39333 ft 519 kts 83°
2026-04-25 17:27 44.88873 -51.73201 39328 ft 518 kts 84°
2026-04-25 17:28 44.89625 -51.62669 39326 ft 519 kts 84°
2026-04-25 17:28 44.90332 -51.52607 39321 ft 518 kts 84°
2026-04-25 17:29 44.91037 -51.42484 39323 ft 518 kts 84°
2026-04-25 17:29 44.91733 -51.32364 39315 ft 518 kts 84°
2026-04-25 17:30 44.92422 -51.22231 39315 ft 519 kts 84°
2026-04-25 17:30 44.93102 -51.12089 39310 ft 519 kts 84°
2026-04-25 17:31 44.93772 -51.01950 39310 ft 518 kts 84°
2026-04-25 17:31 44.94432 -50.91829 39305 ft 517 kts 85°
2026-04-25 17:32 44.95083 -50.81719 39305 ft 517 kts 85°
2026-04-25 17:32 44.95725 -50.71594 39298 ft 518 kts 85°
2026-04-25 17:33 44.96361 -50.61436 39297 ft 520 kts 85°
2026-04-25 17:33 44.96988 -50.51254 39292 ft 520 kts 85°
2026-04-25 17:34 44.97605 -50.41096 39301 ft 519 kts 85°
2026-04-25 17:34 44.98213 -50.30929 39295 ft 519 kts 85°
2026-04-25 17:35 44.98813 -50.20755 39289 ft 519 kts 86°
2026-04-25 17:35 44.99401 -50.10625 39286 ft 522 kts 86°
2026-04-25 17:36 45.00221 -50.00427 39287 ft 523 kts 78°
2026-04-25 17:36 45.02332 -49.90593 39293 ft 523 kts 71°
2026-04-25 17:37 45.04745 -49.80895 39276 ft 523 kts 70°
2026-04-25 17:37 45.07202 -49.71209 39278 ft 523 kts 70°
2026-04-25 17:38 45.08830 -49.64730 39280 ft 522 kts 71°
2026-04-25 17:38 45.12037 -49.51810 39298 ft 523 kts 71°
2026-04-25 17:39 45.14435 -49.42075 39282 ft 525 kts 71°
2026-04-25 17:39 45.16835 -49.32282 39266 ft 527 kts 71°
2026-04-25 17:40 45.19232 -49.22468 39282 ft 527 kts 71°
2026-04-25 17:40 45.21620 -49.12644 39283 ft 527 kts 71°
2026-04-25 17:41 45.23997 -49.02822 39279 ft 526 kts 71°
2026-04-25 17:41 45.26365 -48.93000 39278 ft 526 kts 72°
2026-04-25 17:42 45.28722 -48.83179 39279 ft 525 kts 72°
2026-04-25 17:42 45.31072 -48.73346 39296 ft 526 kts 72°
2026-04-25 17:43 45.33399 -48.63557 39279 ft 526 kts 72°
2026-04-25 17:43 45.35739 -48.53680 39292 ft 529 kts 72°
2026-04-25 17:44 45.38077 -48.43765 39293 ft 528 kts 73°
2026-04-25 17:44 45.40402 -48.33853 39300 ft 528 kts 72°
2026-04-25 17:45 45.41954 -48.27217 39292 ft 528 kts 73°
2026-04-25 17:45 45.45027 -48.14012 39300 ft 527 kts 73°
2026-04-25 17:46 45.47328 -48.04079 39308 ft 529 kts 73°
2026-04-25 17:46 45.49623 -47.94118 39309 ft 529 kts 73°
2026-04-25 17:47 45.51912 -47.84146 39326 ft 529 kts 73°
2026-04-25 17:47 45.53807 -47.75848 39327 ft 529 kts 73°
2026-04-25 17:48 45.56797 -47.62700 39329 ft 528 kts 74°
2026-04-25 17:49 45.59053 -47.52715 39343 ft 529 kts 73°
2026-04-25 17:49 45.60923 -47.44408 39342 ft 529 kts 74°
2026-04-25 17:50 45.63165 -47.34406 39341 ft 529 kts 74°
2026-04-25 17:50 45.65403 -47.24380 39340 ft 529 kts 75°
2026-04-25 17:51 45.67628 -47.14364 39359 ft 528 kts 75°
2026-04-25 17:51 45.69843 -47.04340 39363 ft 529 kts 74°
2026-04-25 17:52 45.72050 -46.94300 39362 ft 528 kts 75°
2026-04-25 17:52 45.74233 -46.84328 39366 ft 526 kts 75°
2026-04-25 17:53 45.76414 -46.74316 39381 ft 527 kts 75°
2026-04-25 17:53 45.78585 -46.64308 39385 ft 526 kts 75°
2026-04-25 17:54 45.80749 -46.54281 39392 ft 526 kts 75°
2026-04-25 17:54 45.82887 -46.44327 39388 ft 526 kts 75°
2026-04-25 17:55 45.85032 -46.34291 39394 ft 526 kts 76°
2026-04-25 17:55 45.87167 -46.24253 39400 ft 526 kts 75°
2026-04-25 17:56 45.89294 -46.14201 39401 ft 526 kts 75°
2026-04-25 17:56 45.90747 -46.06865 43665 ft 527 kts 76°
2026-04-25 17:56 45.91767 -46.01814 43379 ft 525 kts 75°
2026-04-25 17:57 45.92837 -45.96804 43112 ft 524 kts 74°
2026-04-25 17:57 45.93920 -45.91810 42863 ft 523 kts 75°
2026-04-25 17:57 45.94998 -45.86811 42598 ft 523 kts 75°
2026-04-25 17:57 45.95703 -45.83507 42430 ft 523 kts 75°
2026-04-25 17:58 45.97114 -45.76806 42080 ft 523 kts 76°
2026-04-25 17:58 45.98159 -45.71788 41834 ft 524 kts 75°
2026-04-25 17:58 45.99196 -45.66770 41587 ft 524 kts 76°
2026-04-25 17:58 46.00230 -45.61749 41339 ft 524 kts 76°
2026-04-25 17:59 46.01247 -45.56791 41104 ft 524 kts 76°
2026-04-25 17:59 46.02275 -45.51769 40859 ft 524 kts 76°
2026-04-25 17:59 46.03305 -45.46726 40632 ft 524 kts 76°
2026-04-25 17:59 46.04332 -45.41688 40391 ft 524 kts 76°
2026-04-25 18:00 46.05355 -45.36658 40151 ft 524 kts 76°
2026-04-25 18:00 46.06376 -45.31624 39931 ft 523 kts 76°
2026-04-25 18:00 46.07394 -45.26597 39703 ft 523 kts 76°
2026-04-25 18:00 46.08410 -45.21562 39502 ft 523 kts 76°
2026-04-25 18:01 46.09424 -45.16526 39471 ft 523 kts 76°
2026-04-25 18:01 46.11446 -45.06447 39467 ft 523 kts 76°
2026-04-25 18:02 46.13458 -44.96365 39462 ft 523 kts 77°
2026-04-25 18:02 46.15446 -44.86351 39481 ft 523 kts 77°
2026-04-25 18:03 46.17438 -44.76264 39484 ft 523 kts 77°
2026-04-25 18:03 46.19422 -44.66169 39490 ft 523 kts 77°
2026-04-25 18:04 46.21397 -44.56065 39498 ft 523 kts 77°
2026-04-25 18:04 46.23362 -44.45959 39500 ft 523 kts 77°
2026-04-25 18:05 46.25320 -44.35836 39502 ft 523 kts 77°
2026-04-25 18:05 46.27266 -44.25722 39500 ft 523 kts 77°
2026-04-25 18:06 46.29205 -44.15593 39505 ft 522 kts 77°
2026-04-25 18:06 46.31135 -44.05459 39509 ft 522 kts 78°
2026-04-25 18:07 46.33052 -43.95331 39507 ft 522 kts 78°
2026-04-25 18:07 46.34963 -43.85184 39513 ft 523 kts 78°
2026-04-25 18:08 46.36866 -43.75026 39519 ft 523 kts 78°
2026-04-25 18:08 46.38759 -43.64864 39521 ft 523 kts 78°
2026-04-25 18:09 46.40642 -43.54704 39525 ft 522 kts 78°
2026-04-25 18:09 46.42505 -43.44592 39528 ft 522 kts 78°
2026-04-25 18:10 46.44372 -43.34409 39524 ft 523 kts 78°
2026-04-25 18:10 46.46231 -43.24209 39529 ft 523 kts 79°
2026-04-25 18:11 46.48080 -43.14006 39533 ft 523 kts 79°
2026-04-25 18:11 46.49924 -43.03777 39529 ft 524 kts 79°
2026-04-25 18:12 46.51760 -42.93530 39530 ft 525 kts 79°
2026-04-25 18:12 46.53589 -42.83266 39536 ft 525 kts 79°
2026-04-25 18:13 46.55411 -42.72987 39536 ft 525 kts 79°
2026-04-25 18:13 46.57222 -42.62709 39545 ft 525 kts 79°
2026-04-25 18:14 46.59907 -42.47360 39544 ft 524 kts 79°
2026-04-25 18:14 46.61691 -42.37089 39545 ft 524 kts 79°
2026-04-25 18:15 46.63467 -42.26802 39550 ft 524 kts 79°
2026-04-25 18:15 46.65234 -42.16506 39553 ft 524 kts 79°
2026-04-25 18:16 46.66990 -42.06216 39562 ft 524 kts 80°
2026-04-25 18:17 46.69611 -41.90735 39550 ft 525 kts 80°
2026-04-25 18:17 46.71348 -41.80408 39557 ft 525 kts 80°
2026-04-25 18:18 46.73065 -41.70135 39548 ft 525 kts 80°
2026-04-25 18:18 46.74781 -41.59802 39563 ft 524 kts 80°
2026-04-25 18:19 46.76487 -41.49472 39564 ft 524 kts 80°
2026-04-25 18:19 46.78182 -41.39140 39564 ft 524 kts 80°
2026-04-25 18:20 46.79870 -41.28794 39549 ft 524 kts 81°
2026-04-25 18:20 46.81546 -41.18452 39566 ft 523 kts 81°
2026-04-25 18:21 46.83214 -41.08100 39566 ft 524 kts 81°
2026-04-25 18:21 46.84873 -40.97729 39572 ft 525 kts 81°
2026-04-25 18:22 46.86516 -40.87406 39562 ft 525 kts 81°
2026-04-25 18:22 46.88171 -40.76941 39576 ft 525 kts 81°
2026-04-25 18:23 46.89792 -40.66619 39584 ft 525 kts 81°
2026-04-25 18:23 46.91426 -40.56148 39584 ft 525 kts 81°
2026-04-25 18:24 46.93030 -40.45809 39589 ft 525 kts 81°
2026-04-25 18:24 46.94644 -40.35332 39595 ft 525 kts 82°
2026-04-25 18:25 46.96230 -40.24970 39597 ft 525 kts 82°
2026-04-25 18:25 46.97817 -40.14542 39572 ft 524 kts 82°
2026-04-25 18:26 46.99392 -40.04113 39590 ft 525 kts 82°
2026-04-25 18:26 47.00283 -39.93591 39605 ft 519 kts 90°
2026-04-25 18:27 47.00774 -39.83067 39608 ft 518 kts 92°
2026-04-25 18:27 47.01193 -39.72527 39605 ft 518 kts 92°
2026-04-25 18:28 47.01607 -39.61997 39612 ft 518 kts 92°